INTERCOSMOS 25 (21819 NORAD) Tracking and Keplerian Element Data

This shows tracking and keplerian element data for the satellite.

Feedback or suggestion? Click here.




ElementValue
Catalog21819
NameINTERCOSMOS 25
Epoch Orbit40150
Epoch Day12.58804383
Epoch Year2024
RAAN64.4795
Inclination82.6042
Eccentricity0.1503989
Argument of Perigee8.8346
Mean Anonmoly353.6273
Mean Motion12.08094049
Decay Rate2.512E-05
L11 21819U 91086A 24012.58804383 .00002512 00000+0 49850-3 0 9991
L22 21819 82.6042 64.4795 1503989 8.8346 353.6273 12.08094049401500



Live tracking and technical data element details for INTERCOSMOS 25 (NORAD 21819). INTERCOSMOS 25 can be tracked NOW for your location showing map with azimuth and elevation plus other details from your city location.







IsCatalogInMostPopularTable: catalog: 21819, numindb: 325
Update: records affected: 1



GetName: 21819 INTERCOSMOS 25

Hit Count: updated at: Fri, 19 Apr 2024 11:41:41 GMT